[ hide orbit diagram ]
For accurate long-term ephemerides, please instead use our Horizons system.This orbit viewer was implemented using two-body methods, and hence should not be used for determining accurate long-term trajectories (over several years or decades) or planetary encounter circumstances.
Orbital Elements at Epoch 2459000.5 (2020-May-31.0) TDB
Reference: JPL 15 (heliocentric ecliptic J2000)
Element | Value | Uncertainty (1-sigma) | Units |
e | .1943556341624144 | 4.6081e-08 | |
a | 2.779787771177114 | 2.8171e-08 | au |
q | 2.239520356073062 | 1.2573e-07 | au |
i | 2.092692787989886 | 6.2208e-06 | deg |
node | 326.142696360081 | 0.00014663 | deg |
peri | 243.1705429494535 | 0.0001477 | deg |
M | 132.8160273214424 | 1.8495e-05 | deg |
tp | 2458375.954804127554 (2018-Sep-14.45480413) | 8.241e-05 | TDB |
period | 1692.839900789458 4.63 | 2.5733e-05 7.045e-08 | d yr |
n | .2126603938341207 | 3.2327e-09 | deg/d |
Q | 3.320055186281167 | 3.3646e-08 | au |
|
| | Orbit Determination Parameters
Additional Information
|
[ show covariance matrix ]
Physical Parameter Table
Parameter |
Symbol |
Value |
Units |
Sigma |
Reference |
Notes |
absolute magnitude |
H |
16.5 |
|
n/a |
MPO476631 |
|
|
351180 (2004 BE84) Discovered 2004-Jan-24 by LINEAR at Socorro |
Reference: 20130127/Numbers.arc | Last Updated: 2013-01-31 |
|
[ show close-approach data ]
|